Location: Allens Landing
(37.8284°N, 89.7284°W)
Time: 17:31:48
(UTC+00:00)

Vanguard 2 - Visible Passes

Search period start: 14 December 2025 00:00
Search period end: 24 December 2025 00:00
Orbit: 552 x 2898 km, 32.9° (Epoch: 13 December)

Date Brightness Start Highest point End Pass type
(mag) Time Alt. Az. Time Alt. Az. Time Alt. Az.
14 Dec 10.2 09:49:59 10° ESE 09:49:59 10° ESE 09:50:00 10° ESE visible
14 Dec 8.0 11:50:57 17° WSW 11:53:35 37° S 11:58:01 10° ESE visible
15 Dec 9.9 10:01:31 13° ESE 10:01:31 13° ESE 10:02:05 10° ESE visible
15 Dec 8.3 12:02:28 13° WSW 12:05:36 31° SSW 12:09:51 10° SE visible
16 Dec 9.5 10:13:02 17° ESE 10:13:02 17° ESE 10:14:08 10° ESE visible
16 Dec 8.6 12:14:16 10° WSW 12:17:37 25° SSW 12:21:32 10° SE visible
17 Dec 9.1 10:24:32 21° SE 10:24:32 21° SE 10:26:07 10° ESE visible
17 Dec 9.0 12:26:40 10° WSW 12:29:38 19° SSW 12:33:00 10° SSE visible
18 Dec 8.8 10:36:04 24° SE 10:36:04 24° SE 10:38:03 10° ESE visible
19 Dec 8.6 10:47:35 25° SSE 10:47:35 25° SSE 10:49:53 10° SE visible
20 Dec 8.6 10:59:06 23° S 10:59:06 23° S 11:01:34 10° SE visible
21 Dec 8.8 11:10:37 18° SSW 11:10:37 18° SSW 11:13:02 10° SSE visible
22 Dec 11.4 02:44:01 10° S 02:44:24 10° S 02:44:24 10° S visible
22 Dec 9.1 11:22:09 13° SSW 11:22:09 13° SSW 11:24:03 10° S visible
23 Dec 11.3 02:53:30 10° SSW 02:55:53 14° S 02:55:53 14° S visible
